Terminal Aerodrome Forecast
Issued by NWS Chicago, IL

Home | Current Version | Previous Version | Text Only | Print | Product List | Glossary Off
Versions: 1 2 3 4 5 6 7 8 9 10 11 12 13 14 15 16 17 18 19 20 21 22 23 24 25 26 27 28 29 30 31 32

000
FTUS43 KLOT 211400 AAA
TAFRFD
TAF AMD
KRFD 211403Z 2114/2212 16010KT 6SM BR SCT019 OVC035
      TEMPO 2114/2115 4SM -DZSN BR BKN019
     FM211600 17013G17KT P6SM OVC025
     FM212300 15012KT P6SM BKN020 OVC035
     FM220900 14011KT P6SM OVC035=

USA.gov is the U.S. government's official web portal to all federal, state and local government web resources and services.